Regional Weather Roundup
Issued by NWS

Home | Current Version | Previous Version | Graphics & Text | Print | Product List | Glossary On
Versions: 1 2 3 4 5 6 7 8 9 10 11 12 13 14 15 16 17 18 19 20 21 22 23 24 25 26 27 28 29 30 31 32 33 34 35 36 37 38 39 40 41 42 43 44 45 46 47 48 49 50
000
ASUS43 KDMX 270001
RWRIA

WEATHER ROUNDUP FOR IOWA
NATIONAL WEATHER SERVICE DES MOINES IA
700 PM CDT FRI MAY 26 2017

NOTE: "FAIR" INDICATES FEW OR NO CLOUDS BELOW 12,000 FEET WITH NO
SIGNIFICANT WEATHER AND/OR OBSTRUCTIONS TO VISIBILITY.

* - THESE STATIONS ARE NOT NWS STATIONS...THUS NOT UNDER NWS
QUALITY CONTROL.  THEY ALSO DO NOT REPORT WEATHER SUCH
AS PRECIPITATION OR FOG.

IAZ001>003-012>014-020>022-031>034-043>046-270100-
   NORTHWEST IOWA

CITY           SKY/WX    TMP DP  RH WIND       PRES   REMARKS
CARROLL *      MOSUNNY   81  46  30 NW12      29.79S HX  80
CHEROKEE *     SUNNY     75  44  33 NW7       29.81S
DENISON *      SUNNY     77  48  36 N7        29.82S
LE MARS *      SUNNY     75  45  33 W10       29.83R
ORANGE CITY *  SUNNY     73  46  38 NW12G17   29.83R
SHELDON *      SUNNY     75  39  27 NW13G18   29.80S
SIOUX CITY     SUNNY     75  48  38 N10       29.82R
6HR MIN TEMP:  73; 6HR MAX TEMP:  79;

SPENCER        SUNNY     75  47  36 NW10      29.80R
6HR MIN TEMP:  75; 6HR MAX TEMP:  80;

STORM LAKE *   SUNNY     77  41  27 NW17      29.81S
$$

IAZ055>058-069>071-079>083-090>094-270100-
   SOUTHWEST IOWA

CITY           SKY/WX    TMP DP  RH WIND       PRES   REMARKS
ATLANTIC *     SUNNY     79  48  34 N9        29.80R
AUDUBON *      SUNNY     79  45  29 NW8       29.81S
CLARINDA *     PTSUNNY   82  57  42 N7        29.80S HX  82
COUNCIL BLFS * SUNNY     79  50  36 N7        29.81S
CRESTON *      SUNNY     81  59  47 N7        29.80R HX  81
HARLAN  *      SUNNY     79  46  31 NW9       29.84R
LAMONI         SUNNY     80  63  55 N5        29.78R HX  81
6HR MIN TEMP:  77; 6HR MAX TEMP:  82;

RED OAK *      SUNNY     81  50  34 N10G16    29.80R HX  80
SHENANDOAH *   SUNNY     81  54  39 N12G17    29.79S HX  80
$$

IAZ047>049-059>061-072>074-084-270100-
   CENTRAL IOWA

CITY           SKY/WX    TMP DP  RH WIND       PRES   REMARKS
AMES           MOSUNNY   76  61  59 N6        29.77S
6HR MIN TEMP:  73; 6HR MAX TEMP:  81;

ANKENY *       MOSUNNY   79  59  50 CALM      29.77S HX  80
BOONE *        MOSUNNY   77  59  53 CALM      29.77S
CHARITON *     SUNNY     77  61  57 N6        29.78S
DES MOINES     MOSUNNY   80  56  43 CALM      29.77R HX  80
6HR MIN TEMP:  75; 6HR MAX TEMP:  83;

GRINNELL*      SUNNY     71  61  70 E8        29.81S
KNOXVILLE *    SUNNY     77  57  50 N5        29.77S
MARSHALLTOWN   SUNNY     72  62  71 E13       29.78S
6HR MIN TEMP:  69; 6HR MAX TEMP:  77;

NEWTON *       SUNNY     73  63  68 E12       29.78S
PELLA *        SUNNY     74  63  68 E8        29.80R
PERRY *          N/A     80  47  31 W9        29.78R
$$

IAZ004>006-015-016-023>025-035-036-270100-
   NORTH CENTRAL IOWA

CITY           SKY/WX    TMP DP  RH WIND       PRES   REMARKS
ALGONA *       SUNNY     79  45  29 W15       29.78R
CLARION *      PTSUNNY   79  48  34 NW8       29.77S
ESTHERVILLE    SUNNY     74  47  38 W16       29.79R
6HR MIN TEMP:  73; 6HR MAX TEMP:  78;

FORT DODGE *   MOSUNNY   79  52  38 W6        29.79R
MASON CITY     PTSUNNY   75  57  53 S6        29.78S
6HR MIN TEMP:  69; 6HR MAX TEMP:  77;

FOREST CITY *    N/A     81  34  18 CALM      29.77R
WEBSTER CITY * MOSUNNY   79  50  36 NW9       29.76R
IOWA FALLS *     N/A     75  58  55 E8        29.79S
$$

IAZ007>011-017>019-026>030-037>042-050>054-066-270100-
   NORTHEAST IOWA

CITY           SKY/WX    TMP DP  RH WIND       PRES   REMARKS
CEDAR RAPIDS   CLOUDY    67  62  84 CALM      29.81R
6HR MIN TEMP:  61; 6HR MAX TEMP:  68; 6HR PCP: TRACE;

CHARLES CITY * PTSUNNY   70  59  68 SE7       29.80S
CLINTON *      CLOUDY    64  60  87 NE10      29.81R
DECORAH *      MOSUNNY   68  57  68 VRB7      29.80F
DUBUQUE        CLOUDY    64  59  83 NE3       29.84R
6HR MIN TEMP:  60; 6HR MAX TEMP:  66; 6HR PCP:  0.14;

MONTICELLO *   PTSUNNY   66  61  82 E5        29.82R
OELWEIN *      SUNNY     68  59  73 SE9       29.82S
WATERLOO       MOSUNNY   67  58  72 SE10      29.79F
6HR MIN TEMP:  64; 6HR MAX TEMP:  73;

$$

IAZ064-065-067-068-078-270100-
   EAST CENTRAL IOWA

CITY           SKY/WX    TMP DP  RH WIND       PRES   REMARKS
DAVENPORT      CLOUDY    65  59  81 NE12      29.81R
6HR MIN TEMP:  61; 6HR MAX TEMP:  68; 6HR PCP:  0.04;

IOWA CITY      CLOUDY    69  60  73 N5        29.82R
6HR MIN TEMP:  64; 6HR MAX TEMP:  71; 6HR PCP: TRACE;

MT. PLEASANT * PTSUNNY   69  59  71 N13       29.80R
MUSCATINE *    CLOUDY    68  61  77 NW8       29.81R
QUAD CITIES    CLOUDY    67  60  78 NE8       29.79R
6HR MIN TEMP:  62; 6HR MAX TEMP:  71; 6HR PCP:  0.10;

$$

IAZ062-063-075>077-085>089-095>099-270100-
   SOUTHEAST IOWA

CITY           SKY/WX    TMP DP  RH WIND       PRES   REMARKS
BURLINGTON     SUNNY     72  63  73 N8        29.78R
6HR MIN TEMP:  63; 6HR MAX TEMP:  76; 6HR PCP:  0.25;

FAIRFIELD *    SUNNY     70  61  73 N9        29.80R
FORT MADISON * SUNNY     73  64  73 N10       29.79S
KEOKUK *       SUNNY     75  64  69 N7G13     29.77S
OSKALOOSA *      N/A     71  62  73 NE9       29.80S
OTTUMWA        SUNNY     73  64  73 NE10      29.79S
6HR MIN TEMP:  69; 6HR MAX TEMP:  76;

WASHINGTON *   CLOUDY    68  61  77 NW8G14    29.82S
$$

ABBREVIATIONS USED IN REMARKS
   TC - TEMPERATURES IN CELSIUS
  WCI - WIND CHILL INDEX
   HX - HEAT INDEX
  VSB - VISIBILITY
$$





USA.gov is the U.S. government's official web portal to all federal, state and local government web resources and services.